(257195) = 2007 VE1 = 2008 QY41

Discovered at Pises on 2008-08-29 by Pises.

Orbit

Orbit type: Jupiter Trojan

Note: WebGL enabled browser required.

epoch2024-03-31.0
epoch JD2460400.5
perihelion date2021-02-16.14292
perihelion JD2459261.64292
argument of perihelion (°)60.94438
ascending node (°)309.21637
inclination (°)9.07552
eccentricity0.0642807
perihelion distance (AU)4.7887481
Tisserand w.r.t. Jupiter3.0
ΔV w.r.t. Earth (km/sec)12.5
semimajor axis (AU)5.1177185
mean anomaly (°)96.95238
mean daily motion (°/day)0.08513130
aphelion distance (AU)5.447
period (years)11.58
P-vector [x]0.97583828
P-vector [y]0.10065806
P-vector [z]0.19392679
Q-vector [x]-0.18112089
Q-vector [y]0.86909405
Q-vector [z]0.46029420
absolute magnitude13.55
phase slope0.15
uncertainty0
referenceMPEC 2024-C163
observations used342
oppositions18
arc length (days)9611
first opposition used1997
last opposition used2024
residual rms (arc-secs)0.68
perturbers coarse indicatorM-v
perturbers precise indicator003Ek
first observation date used1997-10-21.0
last observation date used2024-02-13.0
computer nameMPCLINUX
JD of orbit computation2456760.825972
perihelion JD uncertainty (days)6.1861E-04
argument of perihelion uncertainty (°)6.1989E-05
ascending node uncertainty (°)3.0263E-05
inclination uncertainty (°)6.6896E-06
eccentricity uncertainty 8.4189E-08
perihelion distance uncertainty (AU)4.5319E-07
Minimum Orbit Intersection Distances (in AU)
for orbit epoch: 2460400.5, reference: E2024-GB3
Mercury4.44015
Venus4.07836
Earth3.79905
Mars3.39954
Jupiter0.04267
Saturn3.88774
Uranus13.0693
Neptune24.9894

Observations

347 total observations over interval: 1997 10 21.14503 – 2024 02 13.266565
These data are available for download (format description).

Date (UT) J2000 RA J2000 Dec Magn Location Ref
1997 10 21.14503 00 06 38.16 +11 23 28.7 20.6 V 691 – Steward Observatory, Kitt Peak-Spacewatch MPS 287438
1997 10 21.16639 00 06 37.60 +11 23 25.5 20.6 V 691 – Steward Observatory, Kitt Peak-Spacewatch MPS 287438
1997 10 21.18853 00 06 37.02 +11 23 21.0 21.1 V 691 – Steward Observatory, Kitt Peak-Spacewatch MPS 287438
2000 12 31.41297 08 03 44.97 +23 15 47.9 20.9 V 691 – Steward Observatory, Kitt Peak-Spacewatch MPS 288693
2000 12 31.43604 08 03 44.21 +23 15 48.9 20.7 V 691 – Steward Observatory, Kitt Peak-Spacewatch MPS 288693
2000 12 31.45918 08 03 43.42 +23 15 49.8 20.7 V 691 – Steward Observatory, Kitt Peak-Spacewatch MPS 288693
2001 02 21.12210 07 36 27.38 +23 34 12.4 21.1 V 691 – Steward Observatory, Kitt Peak-Spacewatch MPS 288693
2001 02 21.14561 07 36 26.86 +23 34 11.9 21.1 V 691 – Steward Observatory, Kitt Peak-Spacewatch MPS 288693
2001 02 21.16835 07 36 26.39 +23 34 11.7 21.0 V 691 – Steward Observatory, Kitt Peak-Spacewatch MPS 288693
2002 02 11.30731 09 53 46.57 +09 19 48.1 19.6   704 – Lincoln Laboratory ETS, New Mexico MPS 353887
2002 02 11.33579 09 53 45.71 +09 19 52.7 20.4   704 – Lincoln Laboratory ETS, New Mexico MPS 353887
2002 02 11.35002 09 53 45.27 +09 19 53.2 20.8   704 – Lincoln Laboratory ETS, New Mexico MPS 353887
2007 11 02.06889 20 09 10.11 -19 45 44.6 21.0 V G96 – Mt. Lemmon Survey MPS 225167
2007 11 02.07447 20 09 10.26 -19 45 44.0 21.5 V G96 – Mt. Lemmon Survey MPS 225167
2007 11 02.07994 20 09 10.47 -19 45 42.6 21.1 V G96 – Mt. Lemmon Survey MPS 225167
2007 11 02.08549 20 09 10.62 -19 45 42.4 20.8 V G96 – Mt. Lemmon Survey MPS 225167
2007 11 03.08251 20 09 40.02 -19 43 24.7 20.8 V G96 – Mt. Lemmon Survey MPS 225167
2007 11 03.08832 20 09 40.16 -19 43 24.0 20.9 V G96 – Mt. Lemmon Survey MPS 225167
2007 11 03.09417 20 09 40.35 -19 43 22.8   G96 – Mt. Lemmon Survey MPS 225167
2008 08 29.92087 22 37 51.34 -02 25 57.8 19.8 R 122 – Pises Observatory MPS 287438
2008 08 29.92561 22 37 51.19 -02 25 58.5 19.8 R 122 – Pises Observatory MPS 287438
2008 08 29.93048 22 37 51.03 -02 25 58.8 19.6 R 122 – Pises Observatory MPS 287438
2008 09 09.27142 22 32 26.41 -02 48 33.1 18.1 V G96 – Mt. Lemmon Survey MPS 287438
2008 09 09.27782 22 32 26.23 -02 48 34.2 17.9 V G96 – Mt. Lemmon Survey MPS 287438
2008 09 09.28412 22 32 26.01 -02 48 35.1 17.6 V G96 – Mt. Lemmon Survey MPS 287438
2008 09 09.29057 22 32 25.80 -02 48 35.6 18.1 V G96 – Mt. Lemmon Survey MPS 287438
2008 09 22.21109 22 26 14.49 -03 17 37.2 19.9 V G96 – Mt. Lemmon Survey MPS 287438
2008 09 22.21994 22 26 14.35 -03 17 38.2 20.1 V G96 – Mt. Lemmon Survey MPS 287438
2008 09 22.22875 22 26 14.06 -03 17 39.4 20.4 V G96 – Mt. Lemmon Survey MPS 287438
2008 09 22.23766 22 26 13.84 -03 17 40.8 20.8 V G96 – Mt. Lemmon Survey MPS 287438
2009 08 24.01559 01 12 41.16 +18 00 25.1 19.6 R 122 – Pises Observatory MPS 292662
2009 08 24.02044 01 12 41.10 +18 00 25.3 19.6 R 122 – Pises Observatory MPS 292662
2009 08 24.02539 01 12 41.05 +18 00 25.9 19.4 R 122 – Pises Observatory MPS 292662
2009 08 24.03590 01 12 40.90 +18 00 26.6 19.7 R 122 – Pises Observatory MPS 292662
2009 10 16.23656 00 49 37.20 +16 56 56.7 19.7   704 – Lincoln Laboratory ETS, New Mexico MPS 299461
2009 10 16.26289 00 49 36.34 +16 56 51.4 19.9   704 – Lincoln Laboratory ETS, New Mexico MPS 299461
2009 10 16.27607 00 49 36.00 +16 56 50.6 19.7   704 – Lincoln Laboratory ETS, New Mexico MPS 299461
2009 10 16.29880 00 49 35.11 +16 56 45.0 19.9 V 703 – Catalina Sky Survey MPS 299461
2009 10 16.30683 00 49 34.75 +16 56 43.1 20.2 V 703 – Catalina Sky Survey MPS 299461
2009 10 16.31490 00 49 34.57 +16 56 41.5 20.2 V 703 – Catalina Sky Survey MPS 299461
2009 10 16.32289 00 49 34.24 +16 56 39.0 18.9 V 703 – Catalina Sky Survey MPS 299461
2010 10 30.32508 03 41 10.17 +30 38 06.2 19.5 V G96 – Mt. Lemmon Survey MPS 353887
2010 10 30.33146 03 41 09.96 +30 38 05.7 19.6 V G96 – Mt. Lemmon Survey MPS 353887
2010 10 30.33634 03 41 09.81 +30 38 05.6 20.1 V G96 – Mt. Lemmon Survey MPS 353887
2010 10 30.34120 03 41 09.67 +30 38 05.2 20.0 V G96 – Mt. Lemmon Survey MPS 353887
2010 10 30.587856 03 41 01.556 +30 37 50.91 19.76 i F51 – Pan-STARRS 1, Haleakala MPS 366894
2010 10 30.600081 03 41 01.166 +30 37 50.08 19.74 i F51 – Pan-STARRS 1, Haleakala MPS 366894
2010 11 10.514281 03 34 43.081 +30 22 26.09 21.09 g F51 – Pan-STARRS 1, Haleakala MPS 366894
2010 11 10.526432 03 34 42.647 +30 22 24.45 21.05 g F51 – Pan-STARRS 1, Haleakala MPS 366894
2010 11 14.27451 03 32 25.90 +30 15 06.5 19.4 V G96 – Mt. Lemmon Survey MPS 357507
2010 11 14.28141 03 32 25.65 +30 15 06.0 19.3 V G96 – Mt. Lemmon Survey MPS 357507
2010 11 14.28834 03 32 25.40 +30 15 05.2 19.6 V G96 – Mt. Lemmon Survey MPS 357507
2010 11 14.29522 03 32 25.08 +30 15 03.8 19.2 V G96 – Mt. Lemmon Survey MPS 357507
2010 11 25.20488 03 25 47.06 +29 48 50.4 19.7 V G96 – Mt. Lemmon Survey MPS 357507
2010 11 25.21113 03 25 46.77 +29 48 49.3 19.6 V G96 – Mt. Lemmon Survey MPS 357507
2010 11 25.21745 03 25 46.52 +29 48 47.8 20.0 V G96 – Mt. Lemmon Survey MPS 357507
2010 11 25.22370 03 25 46.34 +29 48 47.3 20.5 V G96 – Mt. Lemmon Survey MPS 357507
2011 12 26.34332 06 14 54.70 +30 01 14.1 19.9 V G96 – Mt. Lemmon Survey MPS 405829
2011 12 26.35128 06 14 54.38 +30 01 13.6 19.9 V G96 – Mt. Lemmon Survey MPS 405829
2011 12 26.35938 06 14 54.09 +30 01 13.4 20.0 V G96 – Mt. Lemmon Survey MPS 405829
2011 12 26.36750 06 14 53.73 +30 01 13.0 19.8 V G96 – Mt. Lemmon Survey MPS 405829
2011 12 31.13980 06 11 51.79 +29 57 42.8 20.7 V 691 – Steward Observatory, Kitt Peak-Spacewatch MPS 407079
2011 12 31.15502 06 11 51.20 +29 57 42.2 20.5 V 691 – Steward Observatory, Kitt Peak-Spacewatch MPS 407079
2011 12 31.17024 06 11 50.61 +29 57 41.5 20.6 V 691 – Steward Observatory, Kitt Peak-Spacewatch MPS 407079
2012 02 09.37284 05 53 23.383 +29 00 25.64 20.2 z F51 – Pan-STARRS 1, Haleakala MPS 412859
2012 02 09.38489 05 53 23.236 +29 00 24.49 20.4 z F51 – Pan-STARRS 1, Haleakala MPS 412859
2013 01 05.40235 08 45 54.46 +18 57 48.0 21.4 V G96 – Mt. Lemmon Survey MPS 450778
2013 01 05.40890 08 45 54.21 +18 57 48.2 21.1 V G96 – Mt. Lemmon Survey MPS 450778
2013 01 05.41506 08 45 54.03 +18 57 48.8 21.0 V G96 – Mt. Lemmon Survey MPS 450778
2013 01 05.42133 08 45 53.85 +18 57 49.2 21.7 V G96 – Mt. Lemmon Survey MPS 450778
2013 01 18.31355 08 39 04.32 +19 12 07.5 20.2 V G96 – Mt. Lemmon Survey MPS 452131
2013 01 18.32003 08 39 04.06 +19 12 08.0 20.3 V G96 – Mt. Lemmon Survey MPS 452131
2013 01 18.32649 08 39 03.85 +19 12 07.9 20.1 V G96 – Mt. Lemmon Survey MPS 452131
2013 01 18.33299 08 39 03.63 +19 12 08.8 20.2 V G96 – Mt. Lemmon Survey MPS 452131
2013 02 05.20509 08 28 53.32 +19 31 43.0 19.9 V G96 – Mt. Lemmon Survey MPS 456024
2013 02 05.21406 08 28 53.04 +19 31 43.6 19.7 V G96 – Mt. Lemmon Survey MPS 456024
2013 02 05.22311 08 28 52.71 +19 31 43.9 19.8 V G96 – Mt. Lemmon Survey MPS 456024
2013 02 05.23214 08 28 52.42 +19 31 44.6 19.8 V G96 – Mt. Lemmon Survey MPS 456024
2013 02 10.43539 08 26 02.942 +19 36 28.56 20.3 w F51 – Pan-STARRS 1, Haleakala MPS 456024
2013 02 10.45091 08 26 02.440 +19 36 29.32 20.2 w F51 – Pan-STARRS 1, Haleakala MPS 456024
2013 02 10.46636 08 26 01.935 +19 36 29.94 20.4 w F51 – Pan-STARRS 1, Haleakala MPS 456024
2013 03 03.23407 08 16 52.71 +19 47 14.8 20.8 V G96 – Mt. Lemmon Survey MPS 459071
2013 03 03.23951 08 16 52.60 +19 47 14.8 20.8 V G96 – Mt. Lemmon Survey MPS 459071
2013 03 03.24501 08 16 52.50 +19 47 14.7 20.6 V G96 – Mt. Lemmon Survey MPS 459071
2013 03 03.25045 08 16 52.39 +19 47 15.2 20.9 V G96 – Mt. Lemmon Survey MPS 459072
2014 01 29.33962 10 39 07.91 +03 30 27.0   691 – Steward Observatory, Kitt Peak-Spacewatch MPS 500026
2014 01 29.35730 10 39 07.49 +03 30 28.0   691 – Steward Observatory, Kitt Peak-Spacewatch MPS 500026
2014 01 29.37497 10 39 07.05 +03 30 29.6   691 – Steward Observatory, Kitt Peak-Spacewatch MPS 500026
2014 02 23.36371 10 27 14.649 +04 12 06.57 21.1 w F51 – Pan-STARRS 1, Haleakala MPS 503738
2014 02 23.37496 10 27 14.294 +04 12 08.00 21.1 w F51 – Pan-STARRS 1, Haleakala MPS 503738
2014 02 26.46535 10 25 38.591 +04 18 49.59 20.4 w F51 – Pan-STARRS 1, Haleakala MPS 503738
2014 02 26.47695 10 25 38.219 +04 18 51.18 20.5 w F51 – Pan-STARRS 1, Haleakala MPS 503738
